| time (UTC) | temp F | wind direction | speed MPH | gust MPH | rain 1hr in | rain 24hr in | rain mn in | humidity % | barometer mb |
| 20260506163800 | 76 | 205 | 3.0 | 10.0 | 0.00 | 0.00 | 0.00 | 59 | 1013.6 |
| 20260506163525 | 76 | 127 | 3.0 | 8.0 | 0.00 | 0.00 | 0.00 | 60 | 1013.6 |
| 20260506163404 | 76 | 127 | 3.0 | 8.0 | 0.00 | 0.00 | 0.00 | 60 | 1013.6 |
| 20260506162759 | 76 | 100 | 3.0 | 7.0 | 0.00 | 0.00 | 0.00 | 60 | 1013.6 |
| 20260506162300 | 75 | 298 | 4.0 | 11.0 | 0.00 | 0.00 | 0.00 | 61 | 1013.6 |
| 20260506161829 | 75 | 164 | 5.0 | 11.0 | 0.00 | 0.00 | 0.00 | 59 | 1013.6 |
| 20260506161259 | 75 | 147 | 4.0 | 13.0 | 0.00 | 0.00 | 0.00 | 59 | 1013.5 |
| 20260506160759 | 75 | 157 | 4.0 | 13.0 | 0.00 | 0.00 | 0.00 | 60 | 1013.5 |
| 20260506160258 | 75 | 322 | 3.0 | 8.0 | 0.00 | 0.00 | 0.00 | 61 | 1013.7 |
| 20260506155808 | 74 | 204 | 3.0 | 9.0 | 0.00 | 0.00 | 0.00 | 62 | 1013.4 |
| 20260506155252 | 73 | 298 | 4.0 | 12.0 | 0.00 | 0.00 | 0.00 | 63 | 1013.4 |
| 20260506154751 | 73 | 186 | 4.0 | 12.0 | 0.00 | 0.00 | 0.00 | 62 | 1013.4 |
| 20260506154521 | 73 | 185 | 4.0 | 10.0 | 0.00 | 0.00 | 0.00 | 62 | 1013.5 |
| 20260506154356 | 73 | 185 | 4.0 | 10.0 | 0.00 | 0.00 | 0.00 | 62 | 1013.5 |
| 20260506153752 | 73 | 300 | 4.0 | 10.0 | 0.00 | 0.00 | 0.00 | 63 | 1013.3 |
| 20260506153253 | 73 | 184 | 3.0 | 8.0 | 0.00 | 0.00 | 0.00 | 63 | 1013.5 |
| 20260506152753 | 73 | 225 | 3.0 | 8.0 | 0.00 | 0.00 | 0.00 | 62 | 1013.6 |
| 20260506152253 | 73 | 243 | 3.0 | 8.0 | 0.00 | 0.00 | 0.00 | 63 | 1013.5 |
| 20260506151753 | 73 | 0 | 4.0 | 11.0 | 0.00 | 0.00 | 0.00 | 64 | 1013.8 |
| 20260506151253 | 73 | 220 | 4.0 | 11.0 | 0.00 | 0.00 | 0.00 | 62 | 1013.7 |
| 20260506150753 | 74 | 176 | 4.0 | 11.0 | 0.00 | 0.00 | 0.00 | 62 | 1013.7 |
| 20260506150247 | 73 | 150 | 4.0 | 11.0 | 0.00 | 0.00 | 0.00 | 63 | 1013.8 |
| 20260506145747 | 73 | 137 | 3.0 | 9.0 | 0.00 | 0.00 | 0.00 | 63 | 1013.9 |
| 20260506145245 | 73 | 202 | 4.0 | 10.0 | 0.00 | 0.00 | 0.00 | 63 | 1013.9 |
| 20260506145010 | 72 | 206 | 3.0 | 10.0 | 0.00 | 0.00 | 0.00 | 64 | 1014.1 |
| 20260506144850 | 72 | 206 | 3.0 | 10.0 | 0.00 | 0.00 | 0.00 | 64 | 1014.1 |
| 20260506144240 | 71 | 210 | 2.0 | 8.0 | 0.00 | 0.00 | 0.00 | 65 | 1014.1 |
| 20260506143741 | 71 | 165 | 2.0 | 8.0 | 0.00 | 0.00 | 0.00 | 65 | 1014.2 |
| 20260506143241 | 71 | 145 | 3.0 | 8.0 | 0.00 | 0.00 | 0.00 | 66 | 1014.2 |
| 20260506142740 | 71 | 188 | 4.0 | 11.0 | 0.00 | 0.00 | 0.00 | 66 | 1014.1 |
| 20260506142507 | 71 | 245 | 4.0 | 11.0 | 0.00 | 0.00 | 0.00 | 66 | 1014.1 |
| 20260506142345 | 71 | 245 | 4.0 | 11.0 | 0.00 | 0.00 | 0.00 | 66 | 1014.1 |
| 20260506141741 | 71 | 214 | 3.0 | 10.0 | 0.00 | 0.00 | 0.00 | 66 | 1014.1 |
| 20260506141241 | 72 | 203 | 3.0 | 10.0 | 0.00 | 0.00 | 0.00 | 65 | 1014.1 |
| 20260506141218 | 72 | 190 | 2.0 | 7.0 | 0.00 | 0.00 | 0.00 | 66 | 1013.9 |
| 20260506140845 | 72 | 190 | 2.0 | 7.0 | 0.00 | 0.00 | 0.00 | 66 | 1013.9 |
| 20260506140239 | 71 | 1 | 2.0 | 5.0 | 0.00 | 0.00 | 0.00 | 67 | 1014.0 |
| 20260506135736 | 70 | 135 | 2.0 | 6.0 | 0.00 | 0.00 | 0.00 | 69 | 1014.1 |
| 20260506135236 | 69 | 168 | 2.0 | 6.0 | 0.00 | 0.00 | 0.00 | 70 | 1014.2 |
| 20260506134737 | 69 | 141 | 1.0 | 5.0 | 0.00 | 0.00 | 0.00 | 71 | 1014.3 |
| 20260506134237 | 69 | 153 | 2.0 | 6.0 | 0.00 | 0.00 | 0.00 | 72 | 1014.4 |
| 20260506133737 | 69 | 210 | 2.0 | 6.0 | 0.00 | 0.00 | 0.00 | 71 | 1014.4 |
| 20260506133235 | 69 | 217 | 3.0 | 6.0 | 0.00 | 0.00 | 0.00 | 71 | 1014.4 |
| 20260506132736 | 69 | 159 | 3.0 | 6.0 | 0.00 | 0.00 | 0.00 | 72 | 1014.4 |
| 20260506132237 | 69 | 189 | 3.0 | 6.0 | 0.00 | 0.00 | 0.00 | 72 | 1014.4 |
| 20260506131736 | 69 | 80 | 2.0 | 7.0 | 0.00 | 0.00 | 0.00 | 72 | 1014.2 |
| 20260506131236 | 69 | 221 | 2.0 | 8.0 | 0.00 | 0.00 | 0.00 | 72 | 1014.1 |
| 20260506130738 | 68 | 273 | 2.0 | 8.0 | 0.00 | 0.00 | 0.00 | 74 | 1013.9 |
| 20260506130240 | 67 | 275 | 2.0 | 8.0 | 0.00 | 0.00 | 0.00 | 75 | 1013.9 |
| 20260506125740 | 67 | 121 | 3.0 | 7.0 | 0.00 | 0.00 | 0.00 | 76 | 1013.8 |
| 20260506125236 | 66 | 223 | 3.0 | 7.0 | 0.00 | 0.00 | 0.00 | 78 | 1013.8 |
| 20260506124959 | 66 | 119 | 3.0 | 5.0 | 0.00 | 0.00 | 0.00 | 79 | 1013.7 |
| 20260506124841 | 66 | 119 | 3.0 | 5.0 | 0.00 | 0.00 | 0.00 | 79 | 1013.7 |
| 20260506124235 | 65 | 179 | 3.0 | 6.0 | 0.00 | 0.00 | 0.00 | 80 | 1013.8 |
| 20260506123953 | 65 | 156 | 2.0 | 6.0 | 0.00 | 0.00 | 0.00 | 81 | 1013.8 |
| 20260506123838 | 65 | 156 | 2.0 | 6.0 | 0.00 | 0.00 | 0.00 | 81 | 1013.8 |
| 20260506123234 | 64 | 18 | 2.0 | 4.0 | 0.00 | 0.00 | 0.00 | 83 | 1013.8 |
| 20260506122734 | 64 | 234 | 2.0 | 5.0 | 0.00 | 0.00 | 0.00 | 84 | 1013.8 |
| 20260506122223 | 64 | 160 | 3.0 | 6.0 | 0.00 | 0.00 | 0.00 | 84 | 1013.8 |
| 20260506121723 | 64 | 218 | 3.0 | 6.0 | 0.00 | 0.00 | 0.00 | 84 | 1013.7 |
| 20260506121223 | 64 | 222 | 3.0 | 6.0 | 0.00 | 0.00 | 0.00 | 84 | 1013.7 |
| 20260506120949 | 64 | 153 | 3.0 | 6.0 | 0.00 | 0.00 | 0.00 | 84 | 1013.5 |
| 20260506120828 | 64 | 153 | 3.0 | 6.0 | 0.00 | 0.00 | 0.00 | 84 | 1013.5 |
| 20260506120439 | 63 | 203 | 3.0 | 5.0 | 0.00 | 0.00 | 0.00 | 83 | 1013.5 |
| 20260506120326 | 63 | 203 | 3.0 | 5.0 | 0.00 | 0.00 | 0.00 | 83 | 1013.5 |
| 20260506120148 | 62 | 214 | 3.0 | 4.0 | 0.00 | 0.00 | 0.00 | 86 | 1013.6 |
| 20260506115813 | 62 | 214 | 3.0 | 4.0 | 0.00 | 0.00 | 0.00 | 86 | 1013.6 |
| 20260506115429 | 62 | 173 | 2.0 | 4.0 | 0.00 | 0.00 | 0.00 | 87 | 1013.7 |
| 20260506115313 | 62 | 173 | 2.0 | 4.0 | 0.00 | 0.00 | 0.00 | 87 | 1013.7 |
| 20260506114709 | 61 | 193 | 2.0 | 5.0 | 0.00 | 0.00 | 0.00 | 88 | 1013.8 |
| 20260506114153 | 61 | 178 | 3.0 | 6.0 | 0.00 | 0.00 | 0.00 | 89 | 1013.8 |
| 20260506113637 | 61 | 212 | 3.0 | 6.0 | 0.00 | 0.00 | 0.00 | 89 | 1013.9 |
| 20260506113358 | 61 | 138 | 3.0 | 5.0 | 0.00 | 0.00 | 0.00 | 89 | 1013.9 |
| 20260506113242 | 61 | 138 | 3.0 | 5.0 | 0.00 | 0.00 | 0.00 | 89 | 1013.9 |
| 20260506112650 | 61 | 226 | 2.0 | 7.0 | 0.00 | 0.00 | 0.00 | 89 | 1013.8 |
| 20260506112138 | 60 | 220 | 2.0 | 7.0 | 0.00 | 0.00 | 0.00 | 90 | 1013.8 |
| 20260506111638 | 60 | 132 | 2.0 | 5.0 | 0.00 | 0.00 | 0.00 | 90 | 1013.6 |
| 20260506111137 | 60 | 191 | 2.0 | 5.0 | 0.00 | 0.00 | 0.00 | 90 | 1013.7 |
| 20260506110640 | 60 | 159 | 2.0 | 5.0 | 0.00 | 0.00 | 0.00 | 90 | 1013.7 |
| 20260506110141 | 60 | 232 | 3.0 | 5.0 | 0.00 | 0.00 | 0.00 | 90 | 1013.6 |
| 20260506105640 | 60 | 223 | 3.0 | 4.0 | 0.00 | 0.00 | 0.00 | 90 | 1013.4 |
| 20260506105141 | 60 | 206 | 3.0 | 4.0 | 0.00 | 0.00 | 0.00 | 90 | 1013.5 |
| 20260506104641 | 59 | 184 | 2.0 | 4.0 | 0.00 | 0.00 | 0.00 | 91 | 1013.4 |
| 20260506104141 | 59 | 185 | 2.0 | 3.0 | 0.00 | 0.00 | 0.00 | 92 | 1013.4 |
| 20260506104127 | 59 | 210 | 2.0 | 4.0 | 0.00 | 0.00 | 0.00 | 92 | 1013.7 |
| 20260506103746 | 59 | 210 | 2.0 | 4.0 | 0.00 | 0.00 | 0.00 | 92 | 1013.7 |
| 20260506103126 | 59 | 108 | 2.0 | 4.0 | 0.00 | 0.00 | 0.00 | 92 | 1013.8 |
| 20260506102625 | 59 | 198 | 2.0 | 4.0 | 0.00 | 0.00 | 0.00 | 92 | 1013.8 |
| 20260506102126 | 59 | 224 | 2.0 | 4.0 | 0.00 | 0.00 | 0.00 | 92 | 1013.7 |
| 20260506101845 | 59 | 107 | 2.0 | 4.0 | 0.00 | 0.00 | 0.00 | 92 | 1013.6 |
| 20260506101732 | 59 | 107 | 2.0 | 4.0 | 0.00 | 0.00 | 0.00 | 92 | 1013.6 |
| 20260506101125 | 59 | 179 | 2.0 | 4.0 | 0.00 | 0.00 | 0.00 | 92 | 1013.6 |
| 20260506100628 | 59 | 182 | 2.0 | 3.0 | 0.00 | 0.00 | 0.00 | 92 | 1013.7 |
| 20260506100139 | 59 | 180 | 2.0 | 3.0 | 0.00 | 0.00 | 0.00 | 91 | 1013.7 |
| 20260506095828 | 59 | 230 | 1.0 | 2.0 | 0.00 | 0.00 | 0.00 | 91 | 1013.9 |
| 20260506095717 | 59 | 217 | 1.0 | 3.0 | 0.00 | 0.00 | 0.00 | 91 | 1013.9 |
| 20260506095231 | 59 | 230 | 1.0 | 2.0 | 0.00 | 0.00 | 0.00 | 91 | 1013.9 |
| 20260506094612 | 59 | 74 | 1.0 | 2.0 | 0.00 | 0.00 | 0.00 | 90 | 1013.9 |
| 20260506094112 | 59 | 249 | 1.0 | 2.0 | 0.00 | 0.00 | 0.00 | 90 | 1013.9 |
| 20260506093556 | 59 | 169 | 2.0 | 4.0 | 0.00 | 0.00 | 0.00 | 90 | 1013.8 |
| 20260506093056 | 59 | 207 | 2.0 | 4.0 | 0.00 | 0.00 | 0.00 | 90 | 1013.8 |
| 20260506092559 | 60 | 59 | 2.0 | 3.0 | 0.00 | 0.00 | 0.00 | 89 | 1013.8 |
| 20260506092551 | 60 | 167 | 2.0 | 4.0 | 0.00 | 0.00 | 0.00 | 89 | 1013.7 |
| 20260506092204 | 60 | 167 | 2.0 | 4.0 | 0.00 | 0.00 | 0.00 | 89 | 1013.7 |
| 20260506091559 | 60 | 221 | 2.0 | 6.0 | 0.00 | 0.00 | 0.00 | 89 | 1013.8 |
| 20260506091049 | 60 | 239 | 3.0 | 6.0 | 0.00 | 0.00 | 0.00 | 89 | 1013.7 |
| 20260506090754 | 60 | 236 | 2.0 | 4.0 | 0.00 | 0.00 | 0.00 | 89 | 1013.7 |
| 20260506090648 | 60 | 199 | 3.0 | 4.0 | 0.00 | 0.00 | 0.00 | 89 | 1013.6 |
| 20260506090148 | 60 | 236 | 2.0 | 4.0 | 0.00 | 0.00 | 0.00 | 89 | 1013.7 |
| 20260506085546 | 59 | 343 | 2.0 | 4.0 | 0.00 | 0.00 | 0.00 | 89 | 1013.8 |
| 20260506085308 | 59 | 253 | 2.0 | 5.0 | 0.00 | 0.00 | 0.00 | 89 | 1013.9 |
| 20260506085149 | 59 | 253 | 2.0 | 5.0 | 0.00 | 0.00 | 0.00 | 89 | 1013.9 |
| 20260506084545 | 59 | 250 | 2.0 | 5.0 | 0.00 | 0.00 | 0.00 | 89 | 1013.7 |
| 20260506084028 | 59 | 214 | 2.0 | 3.0 | 0.00 | 0.00 | 0.00 | 89 | 1013.6 |
| 20260506083515 | 59 | 199 | 2.0 | 4.0 | 0.00 | 0.00 | 0.00 | 89 | 1013.6 |
| 20260506083013 | 59 | 190 | 2.0 | 4.0 | 0.00 | 0.00 | 0.00 | 89 | 1013.7 |
| 20260506082515 | 59 | 174 | 1.0 | 2.0 | 0.00 | 0.00 | 0.00 | 90 | 1013.6 |
| 20260506082014 | 59 | 158 | 1.0 | 3.0 | 0.00 | 0.00 | 0.00 | 90 | 1013.7 |
| 20260506081736 | 59 | 281 | 1.0 | 4.0 | 0.00 | 0.00 | 0.00 | 90 | 1013.7 |
| 20260506081618 | 59 | 281 | 1.0 | 4.0 | 0.00 | 0.00 | 0.00 | 90 | 1013.7 |
| 20260506081013 | 59 | 174 | 2.0 | 4.0 | 0.00 | 0.00 | 0.00 | 90 | 1013.7 |
| 20260506080514 | 58 | 223 | 2.0 | 4.0 | 0.00 | 0.00 | 0.00 | 90 | 1013.8 |
| 20260506073458 | 59 | 215 | 2.0 | 5.0 | 0.00 | 0.00 | 0.00 | 88 | 1013.9 |
| 20260506072942 | 59 | 181 | 2.0 | 5.0 | 0.00 | 0.00 | 0.00 | 88 | 1014.0 |
| 20260506072442 | 59 | 211 | 1.0 | 3.0 | 0.00 | 0.00 | 0.00 | 88 | 1014.1 |
| 20260506071943 | 60 | 201 | 1.0 | 3.0 | 0.00 | 0.00 | 0.00 | 88 | 1014.0 |
| 20260506071443 | 60 | 188 | 1.0 | 2.0 | 0.00 | 0.00 | 0.00 | 87 | 1013.8 |
| 20260506070943 | 60 | 183 | 1.0 | 3.0 | 0.00 | 0.00 | 0.00 | 87 | 1013.8 |
| 20260506070443 | 60 | 172 | 1.0 | 6.0 | 0.00 | 0.00 | 0.00 | 86 | 1013.8 |
| 20260506062434 | 61 | 239 | 2.0 | 6.0 | 0.00 | 0.00 | 0.00 | 84 | 1014.3 |
| 20260506062148 | 61 | 203 | 3.0 | 7.0 | 0.00 | 0.00 | 0.00 | 83 | 1014.3 |
| 20260506062034 | 61 | 203 | 3.0 | 7.0 | 0.00 | 0.00 | 0.00 | 83 | 1014.3 |
| 20260506061431 | 61 | 202 | 3.0 | 7.0 | 0.00 | 0.00 | 0.00 | 83 | 1014.2 |
| 20260506060931 | 61 | 202 | 2.0 | 6.0 | 0.00 | 0.00 | 0.00 | 83 | 1014.2 |
| 20260506060430 | 61 | 186 | 2.0 | 5.0 | 0.00 | 0.00 | 0.00 | 83 | 1014.2 |
| 20260506050928 | 64 | 157 | 3.0 | 6.0 | 0.00 | 0.00 | 0.00 | 78 | 1014.8 |
| 20260506050440 | 64 | 169 | 3.0 | 6.0 | 0.00 | 0.00 | 0.00 | 78 | 1014.9 |
| 20260506045033 | 64 | 200 | 3.0 | 7.0 | 0.00 | 0.00 | 0.00 | 77 | 1014.9 |
| 20260506044428 | 64 | 168 | 3.0 | 7.0 | 0.00 | 0.00 | 0.00 | 77 | 1015.0 |
| 20260506043927 | 64 | 190 | 3.0 | 7.0 | 0.00 | 0.00 | 0.00 | 77 | 1014.9 |
| 20260506043428 | 64 | 200 | 3.0 | 7.0 | 0.00 | 0.00 | 0.00 | 77 | 1014.9 |
| 20260506042928 | 64 | 236 | 2.0 | 6.0 | 0.00 | 0.00 | 0.00 | 77 | 1015.0 |
| 20260506042427 | 65 | 227 | 3.0 | 8.0 | 0.00 | 0.00 | 0.00 | 77 | 1015.0 |
| 20260506041926 | 65 | 161 | 3.0 | 8.0 | 0.00 | 0.00 | 0.00 | 76 | 1015.0 |
| 20260506041422 | 65 | 101 | 3.0 | 7.0 | 0.00 | 0.00 | 0.00 | 76 | 1015.0 |
| 20260506041143 | 65 | 259 | 4.0 | 7.0 | 0.00 | 0.00 | 0.00 | 76 | 1015.0 |
| 20260506041027 | 65 | 259 | 4.0 | 7.0 | 0.00 | 0.00 | 0.00 | 76 | 1015.0 |
| 20260506040642 | 65 | 160 | 4.0 | 10.0 | 0.00 | 0.00 | 0.00 | 76 | 1015.1 |
| 20260506040527 | 65 | 160 | 4.0 | 10.0 | 0.00 | 0.00 | 0.00 | 76 | 1015.1 |
| 20260506035923 | 65 | 190 | 3.0 | 10.0 | 0.00 | 0.00 | 0.00 | 76 | 1015.2 |
| 20260506035423 | 65 | 192 | 3.0 | 9.0 | 0.00 | 0.00 | 0.00 | 75 | 1015.2 |
| 20260506034923 | 65 | 213 | 3.0 | 9.0 | 0.00 | 0.00 | 0.00 | 75 | 1015.2 |
| 20260506034423 | 65 | 144 | 3.0 | 9.0 | 0.00 | 0.00 | 0.00 | 75 | 1015.2 |
| 20260506033924 | 65 | 207 | 3.0 | 7.0 | 0.00 | 0.00 | 0.00 | 75 | 1015.2 |
| 20260506033424 | 66 | 193 | 3.0 | 6.0 | 0.00 | 0.00 | 0.00 | 74 | 1015.1 |
| 20260506032921 | 66 | 182 | 3.0 | 6.0 | 0.00 | 0.00 | 0.00 | 74 | 1015.2 |
| 20260506032417 | 66 | 236 | 3.0 | 10.0 | 0.00 | 0.00 | 0.00 | 74 | 1015.3 |
| 20260506031916 | 66 | 212 | 4.0 | 10.0 | 0.00 | 0.00 | 0.00 | 73 | 1015.4 |
| 20260506031414 | 66 | 224 | 4.0 | 9.0 | 0.00 | 0.00 | 0.00 | 72 | 1015.3 |
| 20260506030915 | 67 | 183 | 4.0 | 8.0 | 0.00 | 0.00 | 0.00 | 72 | 1015.4 |
| 20260506030416 | 67 | 162 | 3.0 | 7.0 | 0.00 | 0.00 | 0.00 | 72 | 1015.5 |
| 20260506025915 | 67 | 196 | 4.0 | 9.0 | 0.00 | 0.00 | 0.00 | 71 | 1015.5 |
| 20260506025415 | 67 | 128 | 4.0 | 12.0 | 0.00 | 0.00 | 0.00 | 71 | 1015.4 |
| 20260506024915 | 67 | 215 | 4.0 | 12.0 | 0.00 | 0.00 | 0.00 | 70 | 1015.4 |
| 20260506024427 | 67 | 205 | 3.0 | 8.0 | 0.00 | 0.00 | 0.00 | 70 | 1015.3 |
| 20260506023915 | 67 | 176 | 4.0 | 8.0 | 0.00 | 0.00 | 0.00 | 69 | 1015.4 |
| 20260506023415 | 68 | 169 | 4.0 | 10.0 | 0.00 | 0.00 | 0.00 | 69 | 1015.4 |
| 20260506022914 | 68 | 134 | 4.0 | 11.0 | 0.00 | 0.00 | 0.00 | 68 | 1015.4 |
| 20260506022412 | 68 | 180 | 4.0 | 11.0 | 0.00 | 0.00 | 0.00 | 67 | 1015.3 |
| 20260506021909 | 68 | 209 | 4.0 | 10.0 | 0.00 | 0.00 | 0.00 | 67 | 1015.2 |
| 20260506021411 | 68 | 151 | 4.0 | 10.0 | 0.00 | 0.00 | 0.00 | 66 | 1015.2 |
| 20260506020909 | 69 | 4 | 4.0 | 8.0 | 0.00 | 0.00 | 0.00 | 65 | 1015.1 |
| 20260506020410 | 69 | 168 | 4.0 | 9.0 | 0.00 | 0.00 | 0.00 | 65 | 1015.0 |
| 20260506020353 | 69 | 208 | 4.0 | 9.0 | 0.00 | 0.00 | 0.00 | 64 | 1015.0 |
| 20260506020016 | 69 | 208 | 4.0 | 9.0 | 0.00 | 0.00 | 0.00 | 64 | 1015.0 |
| 20260506015410 | 69 | 129 | 4.0 | 12.0 | 0.00 | 0.00 | 0.00 | 63 | 1014.9 |
| 20260506014913 | 69 | 168 | 6.0 | 13.0 | 0.00 | 0.00 | 0.00 | 63 | 1014.8 |
| 20260506014410 | 69 | 206 | 6.0 | 13.0 | 0.00 | 0.00 | 0.00 | 62 | 1014.7 |
| 20260506013911 | 70 | 154 | 4.0 | 9.0 | 0.00 | 0.00 | 0.00 | 62 | 1014.6 |
| 20260506013643 | 70 | 256 | 4.0 | 9.0 | 0.00 | 0.00 | 0.00 | 61 | 1014.6 |
| 20260506013515 | 70 | 256 | 4.0 | 9.0 | 0.00 | 0.00 | 0.00 | 61 | 1014.6 |
| 20260506012910 | 70 | 192 | 4.0 | 9.0 | 0.00 | 0.00 | 0.00 | 61 | 1014.6 |
| 20260506012408 | 70 | 188 | 4.0 | 10.0 | 0.00 | 0.00 | 0.00 | 60 | 1014.7 |
| 20260506012351 | 71 | 206 | 4.0 | 10.0 | 0.00 | 0.00 | 0.00 | 59 | 1014.5 |
| 20260506012012 | 71 | 206 | 4.0 | 10.0 | 0.00 | 0.00 | 0.00 | 59 | 1014.5 |
| 20260506011409 | 71 | 173 | 4.0 | 8.0 | 0.00 | 0.00 | 0.00 | 59 | 1014.5 |
| 20260506010909 | 71 | 253 | 4.0 | 9.0 | 0.00 | 0.00 | 0.00 | 58 | 1014.4 |
| 20260506010410 | 71 | 175 | 4.0 | 10.0 | 0.00 | 0.00 | 0.00 | 58 | 1014.2 |
| 20260506005909 | 71 | 129 | 4.0 | 10.0 | 0.00 | 0.00 | 0.00 | 57 | 1014.2 |
| 20260506005409 | 72 | 178 | 4.0 | 10.0 | 0.00 | 0.00 | 0.00 | 57 | 1014.1 |
| 20260506005132 | 72 | 183 | 4.0 | 9.0 | 0.00 | 0.00 | 0.00 | 56 | 1014.0 |
| 20260506005012 | 72 | 183 | 4.0 | 9.0 | 0.00 | 0.00 | 0.00 | 56 | 1014.0 |
| 20260506004408 | 72 | 222 | 4.0 | 9.0 | 0.00 | 0.00 | 0.00 | 56 | 1013.9 |
| 20260506003908 | 72 | 194 | 4.0 | 9.0 | 0.00 | 0.00 | 0.00 | 55 | 1013.9 |
| 20260506003409 | 72 | 204 | 4.0 | 10.0 | 0.00 | 0.00 | 0.00 | 54 | 1013.8 |
| 20260506002907 | 73 | 218 | 3.0 | 10.0 | 0.00 | 0.00 | 0.00 | 54 | 1013.7 |
| 20260506002406 | 73 | 173 | 4.0 | 9.0 | 0.00 | 0.00 | 0.00 | 53 | 1013.7 |
| 20260506001905 | 73 | 176 | 5.0 | 11.0 | 0.00 | 0.00 | 0.00 | 53 | 1013.6 |
| 20260506001407 | 74 | 236 | 4.0 | 11.0 | 0.00 | 0.00 | 0.00 | 53 | 1013.7 |
| 20260506000905 | 74 | 204 | 4.0 | 9.0 | 0.00 | 0.00 | 0.00 | 53 | 1013.6 |
| 20260506000408 | 74 | 186 | 4.0 | 9.0 | 0.00 | 0.00 | 0.00 | 53 | 1013.5 |
| 20260505235906 | 74 | 194 | 4.0 | 9.0 | 0.00 | 0.00 | 0.00 | 53 | 1013.4 |
| 20260505235407 | 74 | 188 | 4.0 | 9.0 | 0.00 | 0.00 | 0.00 | 52 | 1013.4 |
| 20260505234908 | 75 | 217 | 4.0 | 9.0 | 0.00 | 0.00 | 0.00 | 52 | 1013.4 |
| 20260505234407 | 75 | 197 | 4.0 | 9.0 | 0.00 | 0.00 | 0.00 | 52 | 1013.3 |
| 20260505233907 | 75 | 146 | 4.0 | 9.0 | 0.00 | 0.00 | 0.00 | 51 | 1013.3 |
| 20260505233406 | 75 | 201 | 4.0 | 9.0 | 0.00 | 0.00 | 0.00 | 51 | 1013.3 |
| 20260505232917 | 76 | 179 | 4.0 | 9.0 | 0.00 | 0.00 | 0.00 | 51 | 1013.4 |
| 20260505232400 | 76 | 206 | 4.0 | 9.0 | 0.00 | 0.00 | 0.00 | 50 | 1013.2 |
| 20260505231901 | 76 | 167 | 4.0 | 10.0 | 0.00 | 0.00 | 0.00 | 50 | 1013.2 |
| 20260505231400 | 76 | 264 | 4.0 | 10.0 | 0.00 | 0.00 | 0.00 | 51 | 1013.3 |
| 20260505230901 | 76 | 171 | 5.0 | 8.0 | 0.00 | 0.00 | 0.00 | 50 | 1013.2 |
| 20260505230400 | 76 | 153 | 4.0 | 10.0 | 0.00 | 0.00 | 0.00 | 50 | 1013.2 |
| 20260505225901 | 76 | 224 | 3.0 | 10.0 | 0.00 | 0.00 | 0.00 | 50 | 1013.2 |
| 20260505225401 | 76 | 156 | 3.0 | 9.0 | 0.00 | 0.00 | 0.00 | 50 | 1013.2 |
| 20260505224901 | 76 | 187 | 4.0 | 9.0 | 0.00 | 0.00 | 0.00 | 50 | 1013.3 |
| 20260505224622 | 77 | 185 | 5.0 | 9.0 | 0.00 | 0.00 | 0.00 | 50 | 1013.4 |
| 20260505224505 | 77 | 185 | 5.0 | 9.0 | 0.00 | 0.00 | 0.00 | 50 | 1013.4 |
| 20260505224123 | 77 | 308 | 5.0 | 10.0 | 0.00 | 0.00 | 0.00 | 49 | 1013.3 |
| 20260505224006 | 77 | 308 | 5.0 | 10.0 | 0.00 | 0.00 | 0.00 | 49 | 1013.3 |
| 20260505223402 | 77 | 196 | 4.0 | 10.0 | 0.00 | 0.00 | 0.00 | 49 | 1013.4 |
| 20260505222859 | 77 | 178 | 4.0 | 12.0 | 0.00 | 0.00 | 0.00 | 49 | 1013.5 |
| 20260505222356 | 78 | 85 | 4.0 | 12.0 | 0.00 | 0.00 | 0.00 | 48 | 1013.5 |
| 20260505221856 | 78 | 155 | 5.0 | 9.0 | 0.00 | 0.00 | 0.00 | 48 | 1013.4 |
| 20260505221612 | 78 | 140 | 5.0 | 11.0 | 0.00 | 0.00 | 0.00 | 48 | 1013.4 |
| 20260505221459 | 78 | 140 | 5.0 | 11.0 | 0.00 | 0.00 | 0.00 | 48 | 1013.4 |
| 20260505220853 | 79 | 178 | 5.0 | 11.0 | 0.00 | 0.00 | 0.00 | 47 | 1013.4 |
| 20260505220353 | 79 | 179 | 4.0 | 10.0 | 0.00 | 0.00 | 0.00 | 48 | 1013.4 |
| 20260505215853 | 79 | 186 | 5.0 | 11.0 | 0.00 | 0.00 | 0.00 | 48 | 1013.4 |
| 20260505215352 | 79 | 163 | 4.0 | 11.0 | 0.00 | 0.00 | 0.00 | 48 | 1013.5 |
| 20260505214853 | 79 | 238 | 4.0 | 10.0 | 0.00 | 0.00 | 0.00 | 48 | 1013.5 |
| 20260505214352 | 79 | 195 | 4.0 | 10.0 | 0.00 | 0.00 | 0.00 | 47 | 1013.5 |
| 20260505213852 | 79 | 196 | 4.0 | 13.0 | 0.00 | 0.00 | 0.00 | 46 | 1013.4 |
| 20260505213352 | 79 | 167 | 4.0 | 13.0 | 0.00 | 0.00 | 0.00 | 46 | 1013.3 |
| 20260505212850 | 80 | 183 | 4.0 | 8.0 | 0.00 | 0.00 | 0.00 | 46 | 1013.3 |
| 20260505212614 | 79 | 144 | 4.0 | 9.0 | 0.00 | 0.00 | 0.00 | 45 | 1013.3 |
| 20260505212455 | 79 | 144 | 4.0 | 9.0 | 0.00 | 0.00 | 0.00 | 45 | 1013.3 |
| 20260505211851 | 80 | 194 | 4.0 | 12.0 | 0.00 | 0.00 | 0.00 | 45 | 1013.4 |
| 20260505211352 | 80 | 134 | 5.0 | 12.0 | 0.00 | 0.00 | 0.00 | 45 | 1013.5 |
| 20260505210852 | 80 | 247 | 5.0 | 11.0 | 0.00 | 0.00 | 0.00 | 44 | 1013.4 |
| 20260505210352 | 79 | 159 | 5.0 | 11.0 | 0.00 | 0.00 | 0.00 | 46 | 1013.5 |
| 20260505205852 | 80 | 187 | 4.0 | 11.0 | 0.00 | 0.00 | 0.00 | 46 | 1013.6 |
| 20260505205352 | 80 | 189 | 4.0 | 12.0 | 0.00 | 0.00 | 0.00 | 47 | 1013.6 |
| 20260505204853 | 80 | 202 | 5.0 | 12.0 | 0.00 | 0.00 | 0.00 | 46 | 1013.6 |
| 20260505204352 | 81 | 190 | 4.0 | 10.0 | 0.00 | 0.00 | 0.00 | 46 | 1013.5 |
| 20260505204115 | 80 | 191 | 5.0 | 10.0 | 0.00 | 0.00 | 0.00 | 45 | 1013.5 |
| 20260505203956 | 80 | 191 | 5.0 | 10.0 | 0.00 | 0.00 | 0.00 | 45 | 1013.5 |
| 20260505203613 | 80 | 173 | 4.0 | 12.0 | 0.00 | 0.00 | 0.00 | 46 | 1013.5 |
| 20260505203456 | 80 | 173 | 4.0 | 12.0 | 0.00 | 0.00 | 0.00 | 46 | 1013.5 |
| 20260505202852 | 80 | 179 | 5.0 | 12.0 | 0.00 | 0.00 | 0.00 | 47 | 1013.5 |
| 20260505202617 | 80 | 170 | 6.0 | 12.0 | 0.00 | 0.00 | 0.00 | 46 | 1013.5 |
| 20260505202455 | 80 | 170 | 6.0 | 12.0 | 0.00 | 0.00 | 0.00 | 46 | 1013.5 |
| 20260505202119 | 80 | 165 | 4.0 | 9.0 | 0.00 | 0.00 | 0.00 | 46 | 1013.9 |
| 20260505202047 | 80 | 173 | 5.0 | 10.0 | 0.00 | 0.00 | 0.00 | 46 | 1013.6 |
| 20260505201948 | 80 | 188 | 5.0 | 10.0 | 0.00 | 0.00 | 0.00 | 46 | 1013.7 |
| 20260505201851 | 80 | 172 | 5.0 | 11.0 | 0.00 | 0.00 | 0.00 | 46 | 1013.7 |
| 20260505201751 | 80 | 171 | 4.0 | 11.0 | 0.00 | 0.00 | 0.00 | 46 | 1013.8 |
| 20260505195955 | 80 | 165 | 4.0 | 9.0 | 0.00 | 0.00 | 0.00 | 46 | 1013.9 |
| 20260505195350 | 80 | 213 | 4.0 | 10.0 | 0.00 | 0.00 | 0.00 | 44 | 1013.9 |
| 20260505194850 | 80 | 168 | 4.0 | 10.0 | 0.00 | 0.00 | 0.00 | 44 | 1014.0 |
| 20260505194350 | 80 | 174 | 4.0 | 10.0 | 0.00 | 0.00 | 0.00 | 45 | 1014.0 |
| 20260505193852 | 80 | 0 | 4.0 | 11.0 | 0.00 | 0.00 | 0.00 | 48 | 1014.2 |
| 20260505193347 | 80 | 130 | 4.0 | 11.0 | 0.00 | 0.00 | 0.00 | 45 | 1014.3 |
| 20260505192847 | 81 | 164 | 3.0 | 9.0 | 0.00 | 0.00 | 0.00 | 44 | 1014.3 |
| 20260505192347 | 81 | 146 | 3.0 | 9.0 | 0.00 | 0.00 | 0.00 | 45 | 1014.4 |
| 20260505191847 | 80 | 238 | 3.0 | 8.0 | 0.00 | 0.00 | 0.00 | 45 | 1014.5 |
| 20260505191347 | 80 | 140 | 3.0 | 9.0 | 0.00 | 0.00 | 0.00 | 47 | 1014.6 |
| 20260505190847 | 80 | 213 | 4.0 | 11.0 | 0.00 | 0.00 | 0.00 | 45 | 1014.7 |
| 20260505190348 | 80 | 206 | 4.0 | 11.0 | 0.00 | 0.00 | 0.00 | 46 | 1014.8 |
| 20260505185847 | 80 | 162 | 3.0 | 11.0 | 0.00 | 0.00 | 0.00 | 46 | 1014.9 |
| 20260505185605 | 80 | 80 | 3.0 | 10.0 | 0.00 | 0.00 | 0.00 | 47 | 1014.9 |
| 20260505185452 | 80 | 80 | 3.0 | 10.0 | 0.00 | 0.00 | 0.00 | 47 | 1014.9 |
| 20260505184847 | 80 | 71 | 4.0 | 10.0 | 0.00 | 0.00 | 0.00 | 45 | 1014.9 |
| 20260505184350 | 79 | 193 | 4.0 | 10.0 | 0.00 | 0.00 | 0.00 | 46 | 1015.0 |
| 20260505183844 | 79 | 194 | 5.0 | 9.0 | 0.00 | 0.00 | 0.00 | 47 | 1015.2 |
| 20260505183341 | 79 | 212 | 4.0 | 9.0 | 0.00 | 0.00 | 0.00 | 46 | 1015.3 |
| 20260505182841 | 80 | 157 | 2.0 | 8.0 | 0.00 | 0.00 | 0.00 | 46 | 1015.2 |
| 20260505182338 | 80 | 13 | 3.0 | 8.0 | 0.00 | 0.00 | 0.00 | 44 | 1015.2 |
| 20260505181842 | 80 | 242 | 4.0 | 10.0 | 0.00 | 0.00 | 0.00 | 49 | 1015.2 |
| 20260505181340 | 79 | 209 | 5.0 | 10.0 | 0.00 | 0.00 | 0.00 | 46 | 1015.3 |
| 20260505181321 | 79 | 144 | 5.0 | 9.0 | 0.00 | 0.00 | 0.00 | 46 | 1015.3 |
| 20260505180944 | 79 | 144 | 5.0 | 9.0 | 0.00 | 0.00 | 0.00 | 46 | 1015.3 |
| 20260505180339 | 79 | 95 | 4.0 | 9.0 | 0.00 | 0.00 | 0.00 | 46 | 1015.3 |
| 20260505180106 | 79 | 158 | 4.0 | 10.0 | 0.00 | 0.00 | 0.00 | 46 | 1015.3 |
| 20260505175946 | 79 | 158 | 4.0 | 10.0 | 0.00 | 0.00 | 0.00 | 46 | 1015.3 |
| 20260505175339 | 79 | 174 | 4.0 | 10.0 | 0.00 | 0.00 | 0.00 | 48 | 1015.4 |
| 20260505174841 | 79 | 129 | 3.0 | 9.0 | 0.00 | 0.00 | 0.00 | 50 | 1015.3 |
| 20260505174339 | 79 | 173 | 3.0 | 9.0 | 0.00 | 0.00 | 0.00 | 47 | 1015.4 |
| 20260505173838 | 79 | 215 | 3.0 | 7.0 | 0.00 | 0.00 | 0.00 | 46 | 1015.4 |
| 20260505173336 | 78 | 158 | 4.0 | 8.0 | 0.00 | 0.00 | 0.00 | 50 | 1015.4 |
| 20260505172838 | 78 | 175 | 4.0 | 9.0 | 0.00 | 0.00 | 0.00 | 49 | 1015.5 |
| 20260505172337 | 79 | 202 | 3.0 | 9.0 | 0.00 | 0.00 | 0.00 | 49 | 1015.5 |
| 20260505171839 | 78 | 0 | 3.0 | 9.0 | 0.00 | 0.00 | 0.00 | 51 | 1015.4 |
| 20260505171336 | 78 | 161 | 3.0 | 9.0 | 0.00 | 0.00 | 0.00 | 49 | 1015.5 |
| 20260505170838 | 78 | 161 | 4.0 | 11.0 | 0.00 | 0.00 | 0.00 | 51 | 1015.5 |
| 20260505170338 | 78 | 195 | 4.0 | 11.0 | 0.00 | 0.00 | 0.00 | 52 | 1015.6 |
| 20260505165839 | 78 | 9 | 3.0 | 8.0 | 0.00 | 0.00 | 0.00 | 52 | 1015.6 |
| 20260505165601 | 78 | 204 | 4.0 | 13.0 | 0.00 | 0.00 | 0.00 | 51 | 1015.7 |
| 20260505165443 | 78 | 204 | 4.0 | 13.0 | 0.00 | 0.00 | 0.00 | 51 | 1015.7 |
| 20260505164840 | 77 | 121 | 4.0 | 13.0 | 0.00 | 0.00 | 0.00 | 52 | 1015.8 |
| 20260505164335 | 78 | 171 | 3.0 | 8.0 | 0.00 | 0.00 | 0.00 | 52 | 1015.8 |